Theta_e
310 311 312 312 312 314 313 312 313 314 314 316 316 316 317 317 319 324 325 329 332 333 335 336 338 338 340 341 341 342 339 340 343 344 343 341 341 341 340 339 338 336 336
310 311 311 311 311 312 312 312 312 314 314 315 314 315 314 316 318 321 323 327 327 329 333 333 335 336 338 338 338 338 337 335 335 339 330 334 340 340 339 339 338 338 337
310 309 310 310 310 311 309 309 310 312 312 311 309 311 313 314 317 321 322 321 321 323 326 330 332 333 334 335 335 334 333 331 330 329 327 329 340 339 338 338 338 337 337
306 309 307 306 307 306 303 304 306 308 308 306 305 307 310 314 320 317 318 318 318 319 319 323 325 326 327 329 331 332 332 331 331 328 326 323 325 326 334 333 335 335 333
304 304 303 303 303 301 300 300 301 304 303 302 305 307 311 315 316 317 315 314 313 313 312 318 318 317 319 321 323 325 328 329 330 330 330 329 327 327 326 328 333 334 330
301 300 300 301 301 299 298 297 297 299 302 298 306 309 310 313 311 310 310 310 308 306 308 309 308 309 311 313 316 319 322 323 323 324 325 328 328 329 328 329 330 330 332
300 298 298 297 300 296 294 295 296 296 297 296 299 303 307 305 310 308 307 305 303 301 305 303 301 302 300 305 308 312 315 318 320 320 322 323 325 327 326 327 327 329 329
298 297 295 295 295 294 291 292 292 293 294 295 295 298 296 300 301 306 298 297 295 295 302 300 298 297 296 296 300 306 309 312 316 317 316 319 321 321 323 326 325 326 325
296 295 294 293 292 292 290 290 290 290 291 292 293 295 290 292 294 302 298 292 292 290 292 298 295 295 294 294 297 299 305 307 311 314 315 314 315 316 317 319 321 324 324
293 294 293 291 291 291 290 290 291 289 291 288 291 293 292 292 291 291 296 293 291 291 289 295 292 292 293 293 297 301 302 303 307 309 312 312 312 312 313 314 317 317 316
292 292 291 290 290 290 289 289 289 288 289 287 287 288 288 290 290 288 286 288 289 290 289 289 291 290 291 292 293 297 300 302 304 306 308 309 309 309 310 311 311 311 311
291 290 291 289 289 289 288 289 289 288 288 287 287 287 287 287 287 286 284 284 285 287 288 293 290 290 291 291 296 297 299 300 302 304 306 306 305 305 305 307 307 307 307
289 289 289 288 288 288 289 289 288 287 287 287 286 286 287 288 288 288 286 285 284 286 286 288 288 289 291 290 291 295 296 298 300 301 303 303 302 301 302 303 304 304 304
290 290 289 288 288 288 288 288 287 287 287 288 287 287 287 287 288 288 286 284 281 283 284 285 288 287 288 289 292 295 290 296 297 298 299 299 299 299 300 301 301 301 302
291 289 289 288 288 288 288 287 287 287 287 286 286 286 286 286 286 286 287 286 283 280 280 283 284 287 287 288 291 289 289 294 295 295 296 296 297 297 297 298 299 299 299
290 290 288 287 287 287 287 287 286 286 286 286 286 286 285 286 285 285 285 285 285 283 280 284 285 285 286 289 290 289 288 293 294 294 295 295 296 296 296 297 297 297 297
289 289 288 287 287 287 286 285 285 285 285 285 285 286 286 286 285 285 284 285 284 284 282 284 285 285 285 285 286 286 288 288 288 293 294 295 295 295 295 296 296 295 296
289 289 288 287 287 286 285 284 284 284 283 283 284 284 285 287 284 284 283 283 283 283 282 281 282 283 284 284 284 284 287 289 286 290 293 293 294 293 294 295 294 294 294
289 288 288 287 287 286 284 284 283 283 283 283 283 283 284 284 283 282 282 282 282 284 282 281 281 282 282 283 283 284 284 284 287 290 291 291 292 293 292 293 293 292 292
289 288 288 288 287 286 286 284 284 283 282 283 283 283 283 284 283 282 282 281 282 281 280 280 280 280 280 282 282 281 280 282 282 286 288 289 290 291 291 291 291 290 291
290 289 288 287 287 286 287 285 284 283 282 282 282 283 284 286 289 287 284 282 281 281 281 280 280 280 280 279 280 281 280 280 281 282 281 283 284 285 286 288 288 289 290
289 288 288 288 286 288 293 294 289 284 283 283 282 283 284 288 289 292 293 292 286 281 281 280 280 280 279 280 280 280 280 278 278 283 281 283 284 283 284 284 288 289 290
288 287 288 287 287 287 294 295 296 286 284 283 282 283 284 286 288 285 289 292 291 292 291 282 281 280 280 281 281 280 280 280 281 284 284 282 282 281 282 284 287 289 289
289 288 287 287 287 288 293 296 296 290 286 285 285 284 284 284 285 285 283 282 282 282 283 285 283 283 282 283 282 284 284 285 284 284 283 279 280 279 281 281 287 287 288
289 287 287 287 285 287 293 295 295 290 284 285 286 286 285 285 287 289 285 283 282 282 287 290 290 290 291 291 290 287 283 280 279 280 281 278 278 277 280 280 281 286 287
289 288 287 285 288 286 291 293 294 290 286 285 285 285 290 289 289 289 286 282 282 283 282 284 285 286 287 285 289 286 282 278 278 275 279 277 277 278 275 277 277 279 279
Wind_Speed
4 4 4 4 4 4 4 4 4 5 5 6 5 5 5 6 5 3 2 9 14 14 14 16 16 16 16 17 17 18 14 15 23 20 19 21 21 20 19 19 18 18 17
4 4 4 4 4 4 4 4 4 4 4 4 5 6 6 5 5 5 3 6 14 15 17 16 17 18 17 15 14 12 15 12 12 20 12 31 24 22 21 20 19 19 19
4 4 4 4 4 4 5 4 5 4 4 5 5 5 5 6 4 5 4 4 4 12 15 17 18 22 24 21 16 13 15 16 3 4 8 32 19 21 20 20 19 19 18
5 5 4 4 4 4 4 4 4 4 4 4 4 4 4 3 5 5 6 5 5 5 9 17 19 20 19 20 22 22 18 15 13 9 10 6 11 20 10 5 7 10 5
5 4 4 4 5 4 4 4 3 3 4 6 5 4 4 4 5 5 6 7 6 6 4 12 16 18 19 19 19 19 19 21 18 16 13 9 4 7 6 14 16 12 7
5 5 4 5 4 4 4 4 4 3 3 4 4 4 4 4 4 4 5 5 5 6 6 6 5 7 17 18 19 18 18 17 16 17 18 18 14 12 6 7 9 9 15
5 5 4 4 4 4 4 5 3 4 3 5 2 3 3 4 5 4 4 4 6 5 6 5 4 4 6 16 18 18 18 17 17 16 16 15 16 15 8 4 5 9 8
4 4 4 4 4 3 5 5 5 3 2 5 2 1 3 3 4 4 4 4 6 5 5 5 5 6 5 4 12 18 18 18 18 17 14 15 17 18 22 12 9 11 10
3 3 4 3 3 3 3 3 4 4 2 2 6 2 2 1 2 1 4 4 6 5 5 4 5 5 5 4 7 10 18 18 18 18 17 15 16 17 17 17 16 16 15
2 2 2 3 3 2 4 3 3 2 1 3 3 3 2 1 1 4 2 2 4 5 5 2 4 4 5 4 9 14 16 16 16 17 16 14 14 17 18 15 15 17 17
1 1 1 2 2 2 2 2 3 3 2 2 2 2 2 2 3 2 4 4 4 4 3 1 4 3 4 4 4 8 15 16 15 15 14 12 12 14 17 15 16 15 14
2 3 2 2 2 2 1 1 1 1 1 2 1 1 1 1 0 2 1 2 2 3 3 3 4 3 4 4 7 9 14 14 14 15 13 11 11 13 14 14 12 13 13
3 5 3 3 2 2 2 1 2 2 2 1 2 1 1 1 1 2 2 2 1 2 1 2 2 3 4 3 4 7 11 12 13 13 13 11 10 10 12 12 10 10 11
4 4 6 5 5 5 4 3 2 3 3 3 3 3 2 2 2 2 2 2 2 2 2 4 2 2 2 3 6 9 5 10 12 12 10 10 11 11 13 12 11 10 12
5 6 6 6 6 5 5 4 3 4 4 3 4 4 3 2 2 2 2 2 3 2 3 2 2 1 3 3 6 4 4 9 10 10 8 10 7 8 13 12 9 10 12
6 6 7 6 6 6 6 5 4 3 4 4 4 5 4 3 4 3 3 3 3 3 3 2 2 2 4 4 6 5 6 10 11 9 9 11 7 13 12 10 7 9 14
7 7 7 6 6 6 5 5 6 6 6 6 5 6 6 4 3 3 3 3 3 4 4 3 2 2 2 4 5 5 6 5 5 8 12 8 10 15 10 8 8 10 13
7 8 8 8 7 7 7 7 7 7 7 7 6 6 7 4 6 5 4 5 4 4 4 8 3 2 4 3 4 4 4 4 4 8 9 13 16 13 11 9 11 14 13
10 8 8 9 9 9 8 8 8 8 7 7 6 6 6 6 5 4 4 4 4 3 3 3 4 2 3 2 3 3 3 4 3 8 14 15 12 10 8 16 15 13 10
11 10 11 11 11 10 10 9 8 8 7 7 7 7 7 7 7 6 5 6 5 4 3 3 4 3 3 4 3 3 3 2 4 6 10 9 9 8 17 15 15 14 13
11 11 10 10 10 9 9 10 9 9 8 8 7 7 7 8 13 11 5 5 5 4 4 4 5 3 3 3 3 3 3 4 4 4 3 3 3 4 6 10 11 13 14
9 8 10 11 10 9 17 19 13 9 8 8 8 6 6 10 11 17 18 17 11 6 7 4 4 6 5 4 3 3 3 2 3 2 1 6 3 6 6 5 13 16 16
7 8 10 8 11 11 19 21 21 8 9 9 8 7 5 6 10 8 15 19 17 20 16 6 8 6 5 5 4 4 4 5 6 5 4 8 2 6 5 7 15 19 21
7 7 9 9 10 10 19 20 21 11 8 8 9 8 7 7 8 8 6 7 7 7 6 7 6 7 7 7 7 7 7 5 5 5 3 6 3 5 4 5 20 20 15
6 6 7 8 9 12 17 18 16 9 8 10 9 9 8 7 13 19 10 9 8 9 11 19 20 19 19 19 15 5 3 3 7 6 4 3 2 3 5 8 7 14 12
7 5 7 7 12 10 14 17 16 8 9 7 5 7 16 11 18 21 12 7 9 10 7 8 7 11 12 9 15 7 3 5 5 4 2 3 2 2 4 2 2 3 5
Wind_Direction
20 10 13 12 2 354 8 4 6 8 8 3 9 12 3 349 341 340 352 28 43 25 10 356 349 344 330 317 303 291 6 312 259 244 240 239 230 226 226 230 231 231 233
34 28 19 14 7 0 354 6 5 3 0 358 350 351 341 340 332 355 25 75 60 47 41 24 14 12 13 10 9 346 321 354 15 277 357 329 234 225 222 227 230 232 229
37 35 26 19 5 358 2 7 2 2 6 355 350 345 338 336 345 60 57 55 58 45 40 41 41 38 31 23 5 2 33 36 19 10 23 5 254 226 231 232 229 231 234
30 37 35 21 12 13 12 6 6 357 356 353 338 334 336 5 61 55 55 48 40 39 30 43 46 44 37 28 22 17 13 7 15 30 69 62 343 8 341 278 278 233 259
37 54 39 22 24 23 15 3 356 11 3 351 330 356 15 45 42 59 58 48 42 38 26 36 47 42 37 31 26 19 15 17 21 23 24 36 94 52 354 2 318 260 256
40 45 36 31 31 31 13 6 10 343 6 333 340 29 46 56 49 44 57 58 50 39 38 42 30 32 37 31 28 20 18 14 15 16 16 19 19 37 34 334 318 331 268
41 46 42 36 33 46 25 12 343 9 337 347 19 5 18 50 59 53 44 51 46 34 44 40 40 39 28 33 25 24 20 15 13 15 16 17 13 7 346 21 15 44 25
33 57 47 41 40 44 30 22 18 342 352 360 64 49 1 337 14 54 43 50 42 30 36 45 49 50 34 20 28 22 20 17 13 12 13 15 25 18 12 11 30 43 22
46 52 50 53 43 47 41 23 14 30 353 328 31 110 42 282 321 308 66 53 35 35 23 35 49 58 43 32 26 16 19 13 13 5 4 12 15 13 4 4 6 24 31
69 62 62 56 54 48 41 6 25 4 33 16 341 15 24 98 167 326 350 20 14 27 5 6 69 58 45 28 28 25 19 10 9 3 357 357 10 6 359 354 10 17 12
209 168 107 79 63 55 41 37 24 21 17 54 23 339 11 31 54 121 278 325 358 351 346 5 93 67 35 25 11 11 15 8 1 0 350 353 1 2 356 355 5 3 360
244 242 196 165 169 169 176 200 184 117 96 104 106 28 80 125 96 64 327 304 270 307 1 73 70 58 36 20 5 17 9 3 357 353 348 352 357 358 351 347 355 357 350
226 233 218 213 215 216 224 220 229 218 196 170 178 187 192 205 172 163 164 251 287 303 340 21 48 67 47 6 348 31 360 352 352 348 343 349 360 349 343 341 341 349 342
232 221 220 214 216 213 212 207 208 213 200 199 206 214 213 213 188 185 185 150 318 296 292 201 200 64 25 360 345 4 344 346 346 341 340 345 345 347 341 336 331 336 337
233 227 219 221 222 223 222 217 221 227 213 217 226 224 221 229 212 197 190 168 166 287 281 286 249 253 338 347 331 353 325 316 339 336 341 335 329 342 331 324 323 324 327
227 228 222 222 225 224 221 215 231 247 232 241 227 223 223 220 214 202 198 197 189 192 261 232 270 308 342 329 315 333 310 317 310 323 329 321 342 330 321 306 316 331 324
228 231 227 227 231 234 232 230 235 237 230 235 237 225 234 225 223 215 206 205 208 186 241 278 261 266 287 311 315 314 305 298 290 298 319 322 319 326 315 314 313 329 321
222 223 219 221 223 221 217 220 230 227 225 237 239 237 237 223 223 223 213 218 214 209 200 264 218 236 233 279 286 292 307 310 317 305 322 314 309 309 307 332 322 314 312
232 225 217 222 225 219 215 217 219 226 226 227 228 233 237 230 241 237 235 238 238 237 217 239 283 242 250 233 282 287 285 292 284 297 302 301 302 305 318 321 313 311 308
229 224 222 225 221 218 219 218 217 225 227 230 226 225 227 224 225 222 226 227 235 234 224 238 257 257 247 265 252 258 276 251 276 280 292 294 305 302 315 310 312 310 305
237 235 229 224 221 214 222 216 212 218 221 228 225 229 228 230 236 233 216 221 220 229 228 233 256 248 246 243 244 251 275 270 269 247 264 274 274 285 282 295 298 294 292
241 233 231 230 227 231 235 225 213 212 218 223 235 232 232 248 250 248 246 233 210 211 229 220 243 253 259 239 225 242 258 283 295 243 240 289 262 280 282 283 295 302 307
253 239 243 230 233 233 236 230 226 205 209 215 209 216 229 235 246 234 253 253 254 258 232 209 234 228 243 222 236 253 240 241 254 267 259 287 226 271 267 281 295 296 299
255 248 245 237 236 244 241 233 227 218 213 209 204 203 214 239 235 241 236 243 244 247 254 261 234 245 234 253 232 250 257 254 253 263 211 268 230 262 272 269 283 291 288
266 249 239 242 229 249 244 235 229 214 207 216 204 196 200 231 258 256 241 238 244 246 247 249 249 249 256 265 269 242 232 248 284 275 202 249 242 257 265 271 267 280 279
276 277 270 239 241 247 243 234 229 220 223 222 205 212 230 236 252 253 247 226 244 249 226 242 249 260 267 266 271 268 240 260 265 301 218 184 239 340 308 258 287 264 280